Theta_e
322 323 324 324 321 322 322 323 323 323 324 323 324 324 325 326 326 325 325 325 325 325 326 327 326 325 326 325 324 324 323 304 301 298 299 299 313 320 322 323 323 324 322 313 310 307 303 303 302 301 298 299 298 300 300 302 301 296 290 286 285 285 286 289 288 289 288 287 289 290 291 290 288 291 293 293 290 290 290 290 291 293 292 294 294 296 298 298
323 321 322 322 322 323 323 323 324 324 324 324 324 324 325 324 325 325 325 325 325 325 326 327 326 325 326 325 324 321 309 306 300 300 298 307 319 322 323 324 324 323 318 303 302 300 299 297 297 297 296 294 299 296 300 296 299 292 289 287 284 285 289 290 290 290 288 287 289 288 289 288 287 290 290 287 286 287 287 288 290 289 291 293 294 295 297 297
322 321 322 322 322 322 323 323 324 323 324 324 324 323 324 324 325 325 325 325 325 325 326 326 325 325 325 325 324 319 310 302 301 296 300 320 323 325 325 323 322 321 309 303 304 304 301 298 297 296 294 292 295 294 297 294 298 292 289 285 285 290 288 290 291 290 290 290 289 288 287 287 287 288 291 286 285 287 285 285 287 288 289 290 291 293 292 291
321 322 322 323 323 323 322 323 324 324 324 323 323 323 323 323 324 324 324 325 326 325 325 325 326 325 325 324 322 312 307 300 294 297 301 318 321 322 324 321 322 319 309 308 307 304 302 300 297 296 294 293 292 295 293 295 292 293 289 285 287 289 286 289 289 289 290 291 289 287 287 286 288 288 288 286 284 284 285 287 286 286 288 288 289 289 290 289
322 322 322 322 322 322 322 322 322 323 323 323 323 323 323 323 323 324 324 325 326 326 325 325 325 326 324 323 321 308 303 293 293 299 302 319 321 321 322 323 319 313 310 304 303 301 301 298 295 295 295 289 292 294 291 293 293 293 288 288 290 289 287 291 289 289 290 290 289 288 286 285 289 288 286 285 281 280 283 285 286 285 285 286 287 287 288 287
321 322 322 322 322 322 322 322 322 322 322 323 323 323 323 323 323 323 324 324 325 325 326 325 325 325 324 322 306 310 300 286 299 298 314 319 320 319 320 320 320 312 310 305 301 300 298 296 296 293 291 291 288 289 290 293 295 288 288 290 291 290 288 290 290 289 290 289 288 286 286 288 286 285 286 285 283 284 287 286 285 285 285 285 285 285 284 284
321 321 321 321 321 320 321 321 322 322 322 322 322 323 323 322 323 323 324 324 325 325 325 325 325 324 322 321 310 306 294 296 298 300 313 318 317 316 317 316 317 306 305 298 297 297 295 294 295 293 293 293 289 289 291 293 294 289 288 289 289 291 289 289 289 289 289 288 286 288 289 285 285 282 286 284 285 286 286 285 285 284 284 284 282 282 282 282
321 320 320 320 320 319 320 320 321 321 322 322 322 322 322 322 322 323 323 324 324 324 325 325 324 324 318 314 311 298 293 294 297 302 311 315 306 305 307 302 304 300 298 297 296 296 295 293 293 295 291 290 293 294 296 292 292 290 290 291 289 290 289 289 289 289 289 288 288 288 285 284 285 284 285 283 284 285 284 284 283 283 282 281 281 281 281 281
320 320 320 319 318 319 319 320 320 321 322 322 322 322 322 323 322 322 323 323 324 324 324 325 324 323 318 304 301 292 290 297 300 300 301 300 300 301 300 300 300 299 297 298 297 297 296 294 294 294 291 291 293 294 295 292 288 294 292 291 290 290 289 289 289 289 289 288 288 286 285 285 286 287 283 284 284 284 283 282 282 281 280 280 280 280 280 280
320 320 318 318 319 320 320 320 321 321 321 321 322 322 322 322 322 322 322 323 323 323 324 324 324 321 312 304 299 289 295 299 300 301 301 299 300 300 299 298 298 298 297 296 296 297 295 295 296 295 296 293 295 293 295 292 291 295 292 291 290 289 290 289 288 287 288 287 288 285 284 284 286 285 278 284 283 283 282 281 281 280 279 279 280 280 280 280
320 319 318 318 319 320 320 321 321 321 321 322 323 322 322 322 322 322 322 323 323 322 323 324 322 313 300 299 291 288 300 300 301 300 300 299 300 299 299 298 298 297 296 295 296 297 297 298 297 297 297 293 295 294 293 294 296 291 290 290 289 289 289 289 288 287 288 285 287 286 284 285 285 284 280 282 283 283 280 279 279 279 279 279 280 280 280 280
320 319 319 319 320 320 320 321 320 320 320 322 322 321 321 321 321 321 322 322 322 323 324 324 319 309 299 296 292 292 301 300 300 299 300 300 300 299 300 299 299 298 297 295 296 298 299 300 296 297 291 296 289 295 294 294 293 292 290 287 288 288 287 288 287 287 288 285 287 287 283 281 282 279 283 284 283 282 280 279 279 279 279 279 279 279 279 280
319 318 318 319 319 319 320 320 320 321 321 322 321 321 321 321 320 320 321 320 323 323 323 323 321 314 302 292 294 299 299 298 300 301 300 299 300 299 299 300 299 298 298 297 296 299 301 299 297 296 299 294 292 289 295 294 292 294 289 287 288 286 284 289 288 288 287 288 288 287 274 276 280 282 284 284 282 281 279 278 279 278 278 279 279 279 279 280
318 317 318 318 318 319 319 319 320 321 322 321 322 321 321 321 320 320 322 322 324 322 324 323 309 302 295 289 298 300 300 302 300 299 299 300 299 299 299 299 299 298 299 298 298 299 300 297 299 299 300 293 292 300 295 292 292 286 290 288 281 279 280 288 288 287 286 287 287 286 273 275 279 282 283 284 283 280 278 278 278 278 278 279 279 279 279 280
317 317 318 319 318 318 319 321 320 321 321 320 320 320 320 321 321 321 323 322 323 323 324 318 309 302 292 295 298 302 314 301 298 298 298 299 297 297 297 299 298 299 298 298 300 298 299 297 298 295 293 298 298 295 290 290 288 288 285 280 280 279 282 286 289 288 284 286 287 283 274 276 280 281 283 284 282 281 278 278 279 279 279 279 279 279 279 279
318 317 318 319 317 318 318 320 319 319 319 320 319 320 320 321 322 322 322 322 323 317 316 308 309 298 292 289 297 309 301 296 297 299 298 300 298 296 297 297 297 298 298 298 298 299 297 297 295 293 292 292 289 286 286 286 285 285 283 280 280 281 282 285 286 287 288 285 285 284 275 278 278 281 283 283 282 280 278 278 278 279 279 279 279 280 279 279
318 317 319 318 317 317 318 319 318 318 319 320 319 320 318 317 319 321 321 320 315 317 306 300 298 301 289 297 301 296 293 297 299 299 298 299 299 299 297 296 296 297 297 297 297 297 297 296 295 291 292 287 286 286 282 279 277 279 282 280 283 280 282 280 285 286 285 285 280 282 279 278 280 281 282 282 281 280 278 278 278 278 278 279 279 279 278 278
318 318 318 317 317 318 317 318 318 317 318 319 317 315 309 317 319 317 312 316 311 312 309 304 301 296 290 297 291 293 297 296 298 297 298 300 299 298 298 296 295 294 296 294 297 295 296 290 291 285 286 286 286 283 278 274 278 277 278 277 278 280 281 282 280 284 283 283 280 280 279 278 279 280 280 281 281 279 278 278 278 278 278 278 278 278 278 277
318 318 318 317 318 317 317 317 318 318 317 317 318 320 318 317 315 302 302 301 297 293 290 292 292 285 283 291 294 295 297 298 299 297 297 298 298 298 298 298 296 293 292 291 291 292 291 289 289 284 281 281 283 282 279 281 283 281 282 280 280 277 279 280 283 285 283 279 278 278 276 277 279 279 280 280 280 279 278 278 278 278 278 278 278 278 277 277
317 318 317 318 318 317 316 317 318 318 316 315 305 308 307 300 291 291 297 300 294 294 294 295 295 296 293 293 294 298 299 299 295 297 298 300 297 295 296 296 296 296 291 287 290 290 290 282 278 276 282 283 284 284 284 285 286 285 281 279 278 278 280 284 283 283 283 279 277 278 278 277 277 278 279 279 279 278 278 277 277 277 277 277 277 277 277 277
317 317 316 316 316 316 316 317 318 317 316 309 310 305 301 296 288 287 292 295 298 298 294 295 295 293 293 295 295 296 293 293 295 296 298 301 298 295 294 293 291 289 288 290 288 292 290 282 280 282 285 285 285 284 284 285 285 284 279 277 278 279 277 282 282 283 285 278 275 277 277 276 276 277 278 279 278 277 277 277 277 277 277 277 277 277 277 278
317 316 316 316 316 316 316 317 317 318 315 311 310 303 301 301 303 299 294 288 296 299 294 294 294 293 295 297 298 297 295 291 294 296 300 300 296 292 293 291 288 285 288 288 286 284 282 279 283 285 286 287 285 284 285 284 281 280 278 276 274 277 279 284 284 283 283 280 275 276 275 275 276 277 278 277 277 278 278 278 278 278 277 277 278 278 278 278
317 316 315 315 316 316 316 317 316 317 311 307 303 302 301 306 306 304 301 294 292 300 296 293 291 291 292 295 296 296 292 289 287 294 296 297 294 293 292 289 286 286 287 286 281 279 278 280 285 286 286 284 283 283 283 282 281 279 278 276 274 279 275 273 280 283 283 279 276 276 274 274 276 277 277 278 277 278 279 279 278 279 278 278 278 279 278 277
315 314 314 315 316 316 317 315 316 309 303 303 302 302 306 306 304 307 302 289 289 294 297 295 293 293 292 293 296 295 291 290 291 292 298 294 290 293 290 290 287 286 283 284 283 281 279 283 287 285 285 283 280 282 282 279 279 279 278 275 275 277 278 277 276 280 280 280 279 276 274 273 275 274 275 277 279 278 278 278 278 278 278 279 279 279 279 278
313 313 313 315 315 316 313 315 305 301 305 303 301 305 304 305 305 308 295 289 287 291 300 298 298 293 294 298 297 295 293 292 292 295 296 294 292 291 291 294 287 282 284 283 283 282 282 286 286 285 284 282 280 280 280 279 276 276 280 280 280 279 278 279 279 280 276 275 278 276 268 270 273 274 274 276 276 276 277 276 276 277 278 278 278 278 279 279
312 313 313 315 316 314 316 307 304 305 301 298 304 305 305 304 307 305 299 284 276 286 295 288 298 292 299 295 296 296 293 288 294 296 298 295 297 294 291 287 288 282 284 284 282 281 282 285 284 282 282 280 279 278 279 280 275 272 276 281 280 280 280 278 278 277 272 269 277 279 269 264 273 273 274 275 275 275 276 276 277 277 278 278 278 278 278 278
312 312 314 315 315 317 308 302 306 310 305 305 304 305 305 305 304 305 294 280 275 286 287 295 294 293 300 296 294 294 280 283 294 296 295 297 294 298 287 284 287 289 290 287 280 277 284 283 282 282 281 278 278 277 280 280 274 273 279 279 279 279 279 279 278 276 274 278 280 280 274 268 266 273 275 275 275 275 275 276 276 277 277 278 278 278 278 278
312 312 313 315 315 313 305 303 306 302 302 305 304 303 305 305 305 302 285 271 269 290 286 289 295 299 297 296 296 289 289 292 287 293 295 295 295 293 290 285 283 283 287 281 273 280 283 280 280 279 278 278 277 281 282 281 278 277 280 280 280 278 279 279 278 276 276 274 272 273 276 268 265 272 274 275 273 274 274 275 276 277 277 278 278 279 279 278
313 312 313 314 316 315 309 306 305 301 303 303 303 303 307 305 302 292 282 270 283 288 299 292 303 295 293 295 291 290 291 293 287 292 295 295 295 292 286 288 286 285 285 283 278 279 283 283 283 281 277 275 279 280 280 282 277 278 281 280 279 280 280 280 277 276 273 273 265 271 274 266 267 272 272 274 273 273 274 276 276 277 277 277 278 278 279 278
316 313 313 313 311 303 301 304 301 303 303 303 303 303 304 301 293 282 272 269 288 281 292 293 290 287 290 286 285 289 288 289 291 293 292 288 290 293 291 293 287 284 283 284 281 280 283 288 291 281 279 281 279 279 281 282 283 283 279 277 278 277 277 277 276 275 267 262 267 273 275 271 265 270 272 272 273 275 275 275 276 277 277 278 278 278 279 279
315 314 312 311 301 303 304 302 301 302 302 304 304 303 301 290 284 274 267 276 288 288 290 286 286 290 285 283 280 286 286 286 288 288 285 289 286 287 286 282 287 281 280 280 279 281 282 281 280 282 286 283 280 278 280 282 280 278 275 273 271 270 271 270 268 269 262 260 265 273 274 274 264 267 273 276 275 274 276 275 276 276 277 278 278 278 279 278
314 313 313 304 303 306 304 304 302 302 303 304 305 301 292 278 280 274 275 290 280 282 281 281 285 285 285 285 281 283 283 284 286 285 281 280 280 281 280 275 278 273 274 274 275 279 277 278 281 283 285 283 278 274 277 276 278 278 274 274 269 261 261 260 262 261 261 260 268 272 274 270 269 271 273 275 275 275 275 277 277 277 277 278 278 278 278 278
313 313 313 306 304 300 300 302 303 302 304 303 301 297 284 276 268 275 276 280 279 284 282 285 284 284 283 279 280 282 284 281 285 283 283 282 279 278 281 281 280 279 273 277 276 276 275 278 278 280 280 283 279 273 273 272 275 276 274 267 261 258 255 257 258 261 261 268 271 273 274 270 272 273 274 275 276 276 276 276 278 278 278 278 278 278 278 277
313 309 303 303 302 303 303 302 304 304 304 299 293 285 282 275 272 286 276 279 282 286 286 284 284 284 282 280 283 282 279 284 282 282 282 279 278 277 278 281 281 278 277 276 273 272 265 269 275 278 275 280 279 278 277 275 274 274 277 273 265 261 258 258 260 259 260 264 270 274 267 261 266 271 275 275 276 277 276 276 277 277 278 278 278 278 278 277
311 307 301 301 301 303 302 302 304 303 301 294 288 280 276 272 275 275 276 279 280 284 284 284 284 282 282 281 282 283 283 279 282 280 279 277 276 276 277 278 280 279 278 272 271 272 275 272 278 281 281 280 279 282 280 277 276 276 276 273 268 266 268 261 258 262 259 263 264 263 266 268 272 274 276 276 276 277 277 277 277 277 277 276 276 277 277 276
312 308 309 303 301 301 302 305 302 302 298 291 285 279 274 275 276 279 279 285 284 281 281 282 280 278 277 278 281 279 285 281 281 278 278 276 279 277 279 280 279 279 275 270 271 267 274 275 280 281 280 278 281 282 280 277 265 271 270 265 269 273 273 264 266 270 269 262 262 264 269 271 272 273 273 275 274 275 275 276 276 276 276 275 276 276 276 276
305 308 301 301 303 302 301 302 302 301 295 289 282 275 277 279 283 282 287 283 284 283 281 275 276 278 275 275 278 277 279 281 279 277 276 279 275 278 278 278 281 279 280 277 271 273 267 271 277 279 279 280 279 281 281 279 276 271 265 270 276 277 275 268 262 259 259 260 261 267 265 266 267 265 273 273 273 274 274 275 276 276 275 275 276 276 276 276
306 301 302 301 305 303 302 298 302 299 291 288 282 286 281 281 285 285 285 283 284 284 278 277 278 282 276 275 275 276 280 276 279 276 277 278 274 281 278 277 280 280 279 280 273 274 275 268 275 278 278 281 281 279 279 279 277 273 273 277 271 262 264 265 263 258 256 255 259 263 264 264 265 269 270 271 272 273 274 274 273 274 274 275 276 276 275 274
304 299 292 299 307 302 302 300 299 293 290 283 279 282 284 282 285 284 285 284 284 282 277 281 277 281 278 275 276 278 279 273 276 277 275 277 275 280 278 279 278 279 280 279 274 276 276 267 271 278 279 280 279 277 269 272 277 277 277 275 275 270 261 262 263 259 261 257 259 259 262 264 269 268 272 273 273 274 271 270 273 274 274 275 275 275 275 275
300 294 289 300 302 304 300 301 296 291 286 281 278 279 284 282 285 285 283 285 283 280 280 279 281 277 278 279 279 276 279 279 277 278 276 278 277 280 277 279 278 279 279 280 278 278 274 272 264 272 278 280 273 274 271 271 268 271 269 266 268 266 272 269 266 265 263 257 255 255 260 262 270 273 273 274 273 274 273 274 272 272 272 272 274 275 275 276
298 291 293 300 303 305 301 297 290 284 282 282 281 283 283 282 285 285 287 287 286 287 283 281 280 276 280 278 277 280 279 277 278 275 278 277 277 274 279 279 280 279 278 277 273 275 269 270 266 269 272 273 273 277 276 274 272 272 269 266 268 262 262 260 262 263 264 263 259 258 262 265 274 276 276 275 273 274 274 274 273 272 273 274 276 276 276 277
289 281 288 301 303 298 294 286 282 281 281 279 280 285 285 292 284 284 285 285 286 284 285 282 282 280 279 280 280 279 278 276 277 276 278 274 279 277 279 282 281 281 276 273 274 278 275 273 272 266 271 273 276 278 279 278 277 276 274 272 272 264 262 259 259 259 260 261 261 260 259 266 274 276 276 275 274 274 274 273 273 273 273 275 276 277 277 278
290 288 299 301 302 297 292 283 281 283 279 282 286 284 285 285 283 283 283 284 284 285 283 281 282 281 281 281 280 279 279 276 279 277 278 277 277 278 280 282 281 279 279 272 275 277 283 266 263 269 273 275 276 276 275 276 278 277 276 274 272 268 265 265 260 257 260 260 261 259 259 266 272 275 275 274 274 272 269 272 275 274 275 275 276 276 277 277
289 290 292 300 301 295 288 279 279 278 280 284 283 283 286 285 284 283 283 283 283 282 281 282 282 283 282 282 280 279 281 273 279 278 278 278 277 281 282 281 281 278 277 273 273 278 269 272 271 262 258 264 265 270 273 275 276 272 270 273 271 268 267 263 264 263 263 260 265 258 258 264 268 276 275 274 271 273 274 274 274 274 275 275 275 275 275 275
290 289 291 294 299 295 284 281 282 281 280 281 282 282 283 282 285 284 284 282 284 282 282 280 282 283 282 282 281 281 281 279 276 278 276 277 276 282 281 281 280 278 280 280 284 279 271 270 265 263 262 259 258 259 261 262 265 271 273 272 272 269 266 266 264 261 261 262 265 259 260 270 271 274 274 273 272 273 275 275 275 275 275 275 274 274 274 273
289 281 287 288 293 292 289 284 283 282 282 277 278 283 280 280 284 285 285 283 283 284 282 283 282 282 281 281 281 279 280 280 279 275 273 275 277 280 281 280 281 279 283 286 282 277 269 273 271 264 260 261 266 268 271 276 271 266 266 269 269 268 267 263 260 260 262 259 262 266 268 271 273 273 272 274 274 274 275 274 274 274 274 274 274 273 273 274
287 283 283 282 287 289 283 285 285 282 282 280 279 282 277 281 283 283 287 282 283 284 283 283 283 281 280 280 279 279 279 280 278 276 272 271 274 279 281 279 280 280 287 283 281 272 268 267 270 271 267 270 271 271 273 274 271 272 268 268 268 269 267 268 267 265 266 262 264 268 271 269 272 274 274 274 274 274 274 274 274 274 274 274 274 273 278 274
285 285 285 288 285 282 279 284 283 283 283 279 279 282 280 280 280 278 284 284 284 282 282 282 281 281 280 280 280 275 278 279 278 273 275 273 276 278 278 281 279 283 282 278 275 270 265 266 266 267 265 268 271 272 273 272 272 272 272 270 267 270 268 267 267 271 270 264 266 271 269 267 272 274 276 276 276 276 276 275 274 274 273 273 272 273 272 273
288 286 287 288 282 282 281 286 284 284 283 280 281 282 280 278 278 281 281 282 283 282 283 277 280 281 281 281 280 275 278 273 272 274 271 273 273 274 273 277 280 279 278 276 276 269 269 264 265 265 268 271 272 273 273 272 271 271 270 272 273 270 270 270 271 272 271 269 272 272 272 272 274 275 277 277 278 277 275 274 273 273 273 273 272 272 272 273
286 282 285 285 282 280 283 283 286 283 285 284 279 281 282 280 280 282 283 282 278 282 283 281 281 281 281 281 280 276 277 279 277 273 274 274 272 272 270 273 273 278 275 274 275 274 272 266 273 266 265 266 270 270 270 272 270 270 273 273 272 272 271 271 271 272 271 270 272 272 271 271 276 277 277 277 276 274 273 273 272 273 272 273 272 273 273 273
289 288 289 288 282 282 282 283 283 280 277 280 277 282 283 282 282 282 282 284 282 281 282 281 282 281 281 281 280 280 281 280 280 280 279 276 273 275 274 273 277 273 274 272 267 267 267 266 265 264 264 264 268 272 272 271 270 268 270 271 271 269 266 269 267 271 268 268 269 267 266 269 275 275 274 274 274 273 273 272 272 272 272 273 273 273 273 272
292 292 290 285 281 283 283 281 281 279 279 282 282 283 283 283 283 282 280 284 282 283 282 282 282 281 279 280 279 280 281 281 282 281 281 280 280 280 279 279 278 275 270 270 267 270 265 264 265 263 265 261 267 270 270 270 267 265 266 270 272 270 270 269 272 272 273 273 267 267 270 275 276 275 274 275 274 273 272 272 272 273 273 273 272 272 270 269
Wind_Speed
6 6 6 6 7 6 6 5 5 5 5 5 6 6 6 6 6 6 6 6 5 6 6 6 6 6 7 5 5 5 4 2 3 3 7 3 4 8 10 10 9 8 7 2 2 2 5 3 5 5 4 2 2 0 2 1 1 4 1 2 2 4 1 2 1 1 3 4 3 11 6 12 7 5 3 12 19 11 14 14 8 12 13 9 6 8 9 10
7 7 6 6 5 5 6 6 6 5 5 6 6 6 5 5 5 6 6 7 6 6 6 6 6 7 7 6 6 6 3 3 9 9 3 3 6 9 9 9 8 6 5 1 5 4 4 5 3 4 4 1 1 2 1 1 2 2 1 3 5 2 1 2 2 5 2 4 11 11 13 15 9 2 4 14 14 17 19 13 7 11 10 9 9 8 9 9
7 7 7 7 7 7 7 7 7 7 6 6 6 6 6 5 5 5 5 5 5 6 6 7 7 7 8 8 5 5 1 1 1 6 2 4 7 8 6 6 6 4 1 0 1 2 2 5 6 3 2 1 2 3 0 1 0 2 3 2 5 2 4 6 4 3 4 5 10 13 13 22 12 9 4 12 16 21 19 12 12 8 9 7 6 9 11 16
7 7 7 7 7 7 8 8 8 8 8 8 8 7 7 6 6 5 5 5 5 5 5 5 6 7 8 8 7 3 2 2 3 2 2 7 9 9 6 4 4 3 1 2 3 3 3 4 5 2 1 0 2 1 3 2 2 1 3 3 2 2 4 5 4 2 5 11 11 12 13 22 17 14 8 4 20 15 14 16 13 15 14 16 17 17 18 19
6 6 6 7 7 8 8 8 9 9 9 9 9 9 8 7 7 6 6 6 6 5 5 5 6 7 8 8 8 1 2 2 1 1 3 7 9 11 8 5 5 2 1 3 4 4 2 3 3 3 0 2 2 1 3 3 3 3 6 5 3 3 6 1 4 7 8 11 16 12 14 8 8 22 18 21 18 10 9 12 16 18 17 16 18 17 18 19
7 7 7 8 8 9 9 9 10 10 10 9 9 9 8 9 7 6 5 5 6 5 4 4 5 5 7 6 3 1 2 1 1 2 6 7 9 11 9 5 5 1 3 4 1 5 4 4 0 1 1 1 2 2 4 5 3 2 3 3 8 4 7 1 4 8 15 14 14 14 9 15 20 12 15 23 18 11 12 13 15 16 16 14 17 18 20 20
8 8 8 9 9 10 10 10 10 10 10 10 10 9 8 7 8 8 7 5 5 3 3 4 3 3 5 3 0 3 7 1 1 6 7 7 10 10 12 7 4 4 2 3 4 3 2 3 1 3 1 1 4 2 5 2 2 4 1 1 5 11 9 5 10 17 18 22 16 11 12 16 16 20 11 20 14 14 13 14 14 14 16 18 21 19 18 18
9 9 9 9 10 11 10 10 10 10 10 10 10 10 9 7 6 6 6 7 6 5 4 3 1 2 2 1 1 3 4 1 5 6 9 9 9 10 9 4 4 5 5 4 4 3 2 3 3 2 1 1 0 0 3 5 4 2 2 2 5 8 5 7 16 19 20 17 14 21 23 15 18 12 15 14 14 14 14 15 16 16 18 19 19 18 16 17
9 9 9 10 10 10 10 10 9 8 9 9 9 9 9 8 6 6 5 5 5 3 3 4 3 2 2 1 2 4 3 3 3 7 7 7 8 10 7 3 6 5 4 4 3 1 2 1 3 3 2 2 4 4 3 2 2 2 1 3 5 6 6 8 13 15 14 9 19 22 15 12 18 22 20 12 13 13 15 17 15 17 19 17 16 15 15 15
10 10 10 11 10 9 10 10 8 8 8 8 7 7 7 7 6 5 5 5 5 3 2 1 2 2 2 2 4 6 2 6 6 5 7 6 8 9 5 3 5 5 4 7 5 6 3 0 1 4 1 0 2 1 1 3 1 2 4 5 7 4 8 9 16 15 14 12 21 21 16 16 10 6 7 10 10 13 17 15 15 16 17 15 13 12 12 15
9 9 9 9 9 10 10 10 9 9 10 9 8 7 7 5 5 5 5 5 5 4 2 1 3 2 3 2 8 4 3 3 2 5 6 6 8 7 3 3 2 3 3 4 4 2 2 2 1 2 3 0 1 4 3 0 0 4 4 6 10 10 12 15 16 14 14 9 22 26 19 14 13 16 10 10 9 14 17 14 14 14 13 12 13 12 11 12
8 8 8 8 9 9 10 9 9 10 9 9 8 7 7 5 3 3 4 4 4 3 2 2 3 1 3 10 9 2 3 4 5 4 5 5 6 7 3 2 0 1 2 3 2 2 2 1 3 2 1 0 1 0 0 1 0 2 7 5 4 8 8 3 8 6 12 5 13 16 19 19 12 10 11 10 11 14 16 14 12 12 10 10 10 11 11 10
8 8 8 8 9 10 10 10 9 8 9 8 7 5 5 3 0 1 1 2 4 2 1 2 2 1 3 9 1 6 4 4 4 8 5 3 5 1 1 1 2 1 0 1 2 2 2 2 4 5 0 1 0 1 1 1 0 2 3 8 4 5 6 8 4 8 7 7 5 6 5 6 9 10 9 9 11 14 14 11 9 8 8 8 8 9 10 9
8 9 9 9 9 9 10 10 10 8 7 6 5 5 4 2 2 2 3 2 2 1 0 1 0 2 5 2 4 4 3 2 5 5 3 3 6 4 1 3 5 1 1 1 1 0 4 3 3 0 1 4 1 0 1 1 2 0 0 5 4 6 1 6 1 3 9 5 3 10 9 3 6 9 8 8 9 13 12 9 9 8 7 7 7 7 9 9
10 10 9 10 10 10 10 10 10 7 6 7 6 5 5 4 2 2 2 1 3 1 1 2 1 2 5 0 4 5 2 0 5 5 4 6 5 4 5 8 3 1 1 1 1 2 1 4 3 5 2 2 2 1 3 1 3 2 2 1 3 7 0 4 11 4 8 3 8 20 8 5 6 6 7 7 10 12 11 8 8 7 7 7 7 8 8 8
10 9 10 10 9 9 9 10 10 10 8 6 6 4 3 3 2 3 3 4 3 2 1 1 2 6 6 3 1 4 1 3 6 4 4 4 2 1 4 5 4 3 0 1 2 2 2 3 7 4 5 9 10 2 5 5 5 5 5 1 3 5 5 2 12 8 6 7 19 5 9 7 5 6 7 7 11 10 9 7 6 8 7 6 6 6 5 6
9 10 10 9 9 8 7 10 9 9 6 6 6 5 4 2 4 4 3 3 3 0 3 3 3 4 5 2 1 4 4 3 4 3 6 3 1 0 4 3 1 1 1 1 3 2 2 4 2 5 4 5 3 1 6 7 3 6 3 2 1 3 3 4 3 14 12 12 8 14 13 5 6 6 6 7 9 9 8 7 7 6 5 5 4 4 5 5
9 9 8 8 8 7 7 7 9 8 8 4 3 4 4 7 7 2 4 2 1 0 0 3 3 6 1 4 3 6 5 4 7 7 4 6 1 3 1 1 1 4 1 2 3 6 4 5 6 3 5 9 11 11 7 1 1 2 4 5 4 4 4 3 1 1 18 12 19 14 16 9 6 6 6 6 6 7 7 6 6 6 6 4 4 4 4 4
10 9 8 9 8 7 7 5 7 8 8 6 8 7 7 4 2 8 8 5 7 7 7 7 7 4 1 6 7 6 6 6 4 8 13 9 3 2 1 1 0 1 1 5 5 4 4 4 5 11 10 9 10 7 2 1 1 2 1 1 0 3 1 4 5 3 15 8 10 8 9 9 6 6 5 6 5 6 6 6 5 5 4 4 4 4 3 4
10 10 9 8 8 7 7 4 5 7 5 4 2 2 2 2 7 5 8 8 9 7 4 1 1 1 0 4 6 7 5 3 7 11 13 11 7 4 3 1 2 6 5 4 2 11 1 11 6 4 5 5 5 5 3 3 1 1 2 5 6 4 3 4 4 7 14 14 8 8 9 7 5 4 5 5 5 5 5 5 4 4 4 4 4 4 4 5
11 10 11 10 8 9 8 6 3 4 1 1 1 2 0 2 5 2 2 5 1 3 5 3 4 3 1 3 3 7 6 4 3 12 10 9 0 4 9 4 7 10 5 5 7 1 6 12 7 3 4 4 4 5 4 7 6 3 5 7 7 6 6 1 6 8 4 9 2 4 10 5 4 3 3 3 4 5 6 5 5 5 5 4 5 5 5 5
11 11 11 10 9 10 10 7 5 3 3 2 2 2 1 1 0 1 5 5 4 4 8 5 3 4 3 1 0 3 2 3 16 17 12 11 8 7 6 9 8 7 4 2 5 8 11 8 8 11 4 4 5 9 7 8 7 7 7 2 4 6 2 3 6 4 3 12 7 4 8 4 3 3 1 3 1 1 4 7 7 8 6 6 6 6 6 5
10 9 12 11 11 11 9 6 6 4 2 3 2 3 1 1 3 2 2 7 3 1 3 3 6 4 4 5 2 6 11 11 4 11 10 9 7 7 2 9 9 10 13 10 7 2 8 6 11 11 6 7 9 9 10 7 8 8 8 7 2 1 2 2 2 4 7 3 10 6 10 4 1 1 2 1 3 1 3 3 3 6 8 8 8 7 7 6
11 12 12 11 9 10 7 6 4 5 5 5 5 1 0 1 3 2 1 3 3 2 0 1 3 1 2 3 3 3 5 4 3 12 8 5 5 3 4 5 10 10 8 10 13 12 5 4 8 3 9 8 6 10 12 7 4 3 5 4 1 1 2 2 1 4 7 11 11 10 7 2 4 3 2 3 3 3 2 3 3 2 3 3 3 4 5 6
12 12 12 11 9 6 5 5 5 0 2 4 3 1 0 1 1 0 3 2 4 2 1 1 2 1 4 2 1 1 1 2 5 3 4 5 7 4 1 1 6 4 5 5 11 12 10 9 5 7 7 8 8 11 8 4 6 3 0 2 1 1 1 1 2 5 3 0 7 5 2 3 5 6 7 5 3 4 4 5 5 4 4 4 5 5 4 5
13 14 13 11 7 6 4 3 1 1 5 2 0 1 0 1 0 1 1 3 2 3 3 4 1 5 0 8 6 1 3 4 3 5 4 5 3 2 2 4 3 3 3 6 8 4 2 6 7 4 6 7 7 5 2 5 2 2 5 2 1 1 0 3 0 3 1 1 6 4 2 4 3 6 6 6 6 8 4 7 7 7 6 6 7 7 6 7
14 15 14 12 8 4 2 0 0 1 0 0 1 1 0 1 1 1 2 2 4 2 3 3 2 2 2 6 5 1 4 5 6 5 10 12 5 1 7 5 4 2 1 2 6 4 4 9 10 9 8 7 6 9 5 5 4 1 3 2 6 3 4 2 4 3 3 0 3 4 3 2 4 5 5 6 7 6 7 8 9 9 8 8 8 8 7 7
13 15 15 12 7 6 1 1 1 2 1 0 2 2 2 1 1 1 3 3 2 3 2 4 1 4 4 5 9 6 4 6 3 7 4 7 5 6 10 5 3 1 3 7 7 4 2 3 5 8 6 6 5 1 6 2 1 3 6 6 8 5 4 1 0 2 2 4 1 2 1 1 2 2 2 6 5 6 11 10 10 10 9 9 8 9 9 9
13 16 17 13 5 7 4 2 3 2 1 2 2 3 2 2 2 2 1 2 0 1 3 1 3 3 6 7 8 5 1 4 4 3 7 8 14 1 7 6 2 13 11 8 9 1 1 2 1 3 5 5 4 5 4 1 4 6 7 4 1 2 2 1 1 1 1 3 2 2 1 1 7 1 4 2 4 9 12 14 12 11 10 9 8 8 8 6
11 14 17 15 4 8 5 4 4 0 2 2 2 2 1 2 3 2 3 1 1 1 1 2 3 4 4 4 4 7 8 5 3 2 6 3 10 9 3 1 5 8 8 8 7 6 1 3 1 4 4 2 3 4 2 1 1 7 5 5 7 5 2 1 2 1 2 1 1 1 3 4 5 5 9 9 10 8 7 4 6 7 8 8 8 9 8 7
10 12 15 11 6 1 1 3 1 1 3 2 1 3 2 5 2 4 2 1 1 1 2 3 1 4 4 7 5 6 3 4 6 4 6 7 14 9 7 4 7 5 6 5 5 4 3 4 3 1 2 3 2 3 6 2 4 6 5 4 3 4 8 6 5 4 2 3 4 1 1 1 2 6 6 9 2 4 9 9 11 11 11 10 8 8 8 7
9 8 11 9 2 1 2 1 1 1 1 1 1 3 2 2 8 7 2 4 1 3 2 3 2 1 6 1 6 5 4 5 4 5 6 3 8 10 7 4 4 2 3 1 0 2 5 3 3 4 2 9 4 6 7 7 8 10 6 8 9 2 5 5 7 6 0 2 4 2 6 5 5 7 3 5 6 2 4 6 10 11 10 9 8 8 7 6
6 6 5 5 4 3 1 0 1 2 1 1 2 2 4 7 2 2 1 3 0 1 2 2 2 4 2 2 4 3 2 4 4 5 2 3 6 2 3 6 2 1 2 2 2 2 3 2 5 6 6 3 3 7 6 6 7 9 7 3 6 4 3 1 3 1 3 6 6 5 1 3 4 6 3 5 5 5 2 3 7 9 11 10 9 7 6 6
4 4 2 2 3 2 2 0 1 1 1 1 3 6 9 9 1 1 0 1 1 1 2 1 4 3 4 3 1 1 4 1 3 3 5 1 5 6 6 6 9 7 5 2 3 1 2 3 4 3 1 3 3 3 2 3 2 2 1 2 4 5 2 1 1 1 4 7 8 4 1 3 3 3 1 4 4 2 2 1 2 5 7 7 7 6 6 6
3 2 3 0 1 1 1 1 0 1 2 7 11 6 8 1 0 0 1 2 2 2 1 2 1 1 2 2 2 2 1 0 1 4 7 6 5 2 6 7 6 2 0 2 1 1 0 2 2 1 2 1 1 2 2 2 0 2 2 6 5 0 4 2 3 2 3 4 6 3 3 3 4 2 1 0 2 1 1 3 1 3 3 4 4 6 8 7
2 0 1 1 2 0 2 0 1 3 3 9 11 9 5 1 1 1 0 2 1 1 5 4 4 4 2 1 0 4 4 1 2 4 2 4 0 3 3 1 3 4 4 3 1 1 1 0 1 3 5 2 1 1 2 2 1 3 5 1 2 3 3 0 5 3 0 2 6 2 6 6 2 1 2 2 0 5 3 4 4 5 5 5 6 8 7 7
1 0 3 3 2 2 2 1 1 3 8 11 11 3 2 0 1 1 1 1 1 0 1 2 4 2 2 2 2 7 4 2 1 2 2 2 2 3 3 3 1 4 2 2 2 1 1 4 2 2 1 3 2 1 1 2 2 3 3 3 0 1 3 3 2 3 1 1 5 2 5 7 4 9 0 3 5 8 7 7 8 8 6 7 9 8 9 8
1 1 1 3 4 2 3 3 2 2 6 12 8 6 1 2 1 1 0 1 1 1 2 2 0 4 1 2 4 3 7 4 7 3 1 1 1 1 1 2 4 4 4 3 3 1 2 2 1 3 4 2 2 2 3 3 2 4 6 1 2 1 1 2 2 3 4 3 4 5 3 5 4 8 0 7 8 12 11 9 6 8 8 10 10 9 6 5
1 1 2 4 1 3 2 3 5 7 11 12 1 6 1 1 0 0 3 3 0 1 3 1 1 2 1 1 2 2 3 2 2 2 1 1 1 1 2 1 2 5 4 4 2 1 1 1 3 1 1 0 1 2 2 1 4 3 2 3 0 4 2 0 3 2 3 6 4 7 1 7 6 5 8 8 10 11 7 6 9 11 10 9 8 7 7 6
1 2 3 3 7 1 3 2 10 9 11 9 2 3 2 1 0 1 1 1 0 2 0 1 2 1 3 0 1 0 2 2 2 1 2 2 1 1 1 4 1 6 5 2 1 0 1 2 1 2 2 0 1 1 2 4 1 2 5 2 3 1 3 2 1 2 3 2 2 3 7 6 9 5 5 8 9 10 8 9 8 8 8 7 6 6 6 7
1 4 1 5 12 3 3 16 13 9 7 1 3 3 1 1 0 1 2 4 0 1 1 1 0 1 1 0 2 0 1 2 2 0 0 0 1 1 1 0 1 4 4 2 5 3 1 3 2 3 5 1 2 0 1 1 3 5 4 3 5 1 1 0 7 2 1 2 3 1 12 7 11 5 8 8 6 6 8 8 7 7 7 6 7 7 7 7
3 3 4 8 10 6 9 10 6 2 6 5 1 1 1 1 1 1 1 1 2 1 1 3 1 2 2 1 1 2 1 1 1 1 1 1 0 1 1 2 2 0 1 0 1 0 1 1 1 3 3 3 1 1 0 1 2 1 3 4 5 3 4 4 0 4 2 4 1 3 1 13 4 6 6 6 6 6 7 6 7 6 7 8 8 8 7 8
4 3 3 6 7 9 16 9 3 7 5 0 2 2 1 1 2 2 2 2 1 1 1 3 1 1 1 0 1 2 1 0 0 0 1 1 1 2 4 2 2 4 2 2 2 1 2 1 2 6 3 2 3 4 4 3 1 1 1 1 3 3 5 6 5 4 3 3 2 2 3 12 5 2 3 4 5 5 4 5 7 7 6 6 8 7 8 7
3 3 4 7 6 6 11 6 3 3 3 1 3 1 2 1 1 2 1 1 1 2 1 0 2 0 0 0 1 0 0 1 1 2 0 1 0 4 3 2 2 0 1 1 2 2 0 1 2 2 5 6 4 2 2 1 1 1 1 3 3 3 5 2 4 1 0 6 8 3 9 9 5 1 1 0 1 4 6 7 6 7 6 7 7 6 6 6
3 1 4 7 11 10 6 4 10 7 2 3 2 2 1 3 0 1 1 1 1 1 1 0 1 0 0 0 0 1 0 1 0 1 2 0 1 0 4 1 4 1 1 4 3 0 1 1 2 0 0 2 4 4 6 5 3 3 2 3 2 9 8 2 1 1 3 4 5 3 8 11 3 0 3 4 4 6 7 8 6 7 8 7 5 6 6 4
1 3 5 8 8 8 7 3 6 7 6 3 4 0 3 1 1 2 4 0 1 0 1 1 1 1 0 1 0 0 0 2 1 1 1 0 0 1 4 3 3 1 3 4 2 2 0 0 2 5 6 7 9 7 5 0 2 3 5 4 6 2 3 4 4 4 8 4 6 11 9 17 19 11 5 8 6 8 9 6 7 7 8 8 6 5 4 3
1 5 0 1 3 9 5 5 3 3 3 4 3 0 4 1 1 1 1 0 0 0 1 1 0 1 1 1 0 0 1 0 2 2 1 4 1 2 1 5 1 2 5 2 2 2 1 1 3 3 6 10 7 7 7 1 7 9 7 7 7 6 9 7 8 9 6 1 10 8 14 11 16 13 10 8 6 7 8 8 7 6 6 7 5 4 5 4
5 1 2 1 5 1 4 4 3 5 3 4 1 1 2 1 1 0 2 0 0 1 1 2 3 1 2 1 1 0 1 0 1 1 0 1 0 2 1 1 2 4 4 0 1 1 1 1 5 4 9 7 9 10 10 6 7 9 9 6 5 9 7 13 12 13 4 5 14 14 4 6 16 16 16 13 9 11 10 9 9 7 4 3 3 4 4 4
4 2 1 0 4 1 1 1 3 6 6 3 1 2 1 2 1 1 1 1 1 1 1 0 0 0 0 0 1 0 0 0 2 0 4 1 3 0 1 1 2 4 1 0 1 1 2 3 5 5 5 8 10 10 8 8 3 4 8 10 10 9 13 15 15 11 11 13 16 16 17 19 19 19 16 14 10 9 7 3 1 1 4 5 4 4 5 5
1 3 1 5 6 4 0 1 1 5 5 2 3 0 1 1 1 0 1 1 0 1 1 2 1 1 0 0 1 1 2 2 2 2 1 2 1 1 2 3 1 0 1 1 0 1 1 3 2 0 2 7 8 5 2 5 4 6 12 9 8 9 10 14 9 10 8 12 15 17 18 20 18 9 8 8 7 3 2 1 4 5 4 4 4 5 6 7
2 2 5 9 6 2 1 1 1 3 2 5 5 1 2 0 1 2 0 0 1 1 1 1 1 1 0 0 1 2 3 2 2 4 4 5 3 5 4 2 2 1 0 0 0 1 1 3 1 1 3 7 4 1 3 4 4 7 14 15 11 7 6 6 6 9 5 12 9 6 8 13 14 4 4 3 4 4 6 5 4 3 3 4 5 7 7 6
3 1 5 6 6 0 1 1 1 3 3 1 2 1 1 1 1 2 1 0 1 1 2 1 1 1 2 0 3 3 3 2 2 3 2 2 1 1 1 1 4 4 3 2 0 1 1 1 1 1 2 6 7 2 5 4 6 8 11 10 9 6 6 3 5 5 10 6 5 9 14 13 10 5 9 9 5 6 6 5 4 4 4 4 5 6 4 2
Wind_Direction
10 14 14 11 6 358 351 345 338 339 331 327 326 321 320 319 314 317 318 315 305 297 301 298 303 304 308 321 334 324 317 66 63 51 64 215 234 282 286 288 285 294 302 317 324 350 323 296 269 259 253 162 265 266 246 172 135 62 85 123 304 205 1 244 51 70 119 100 48 41 33 70 44 0 72 47 31 50 47 53 50 58 58 66 71 75 85 88
3 5 4 357 349 341 331 328 323 321 317 314 314 311 306 307 308 310 312 311 307 310 314 316 314 323 318 338 352 332 43 89 89 73 62 249 256 281 282 285 291 299 313 46 25 353 357 335 312 311 217 211 235 172 164 276 85 110 175 101 214 197 302 47 124 43 78 87 85 64 48 58 10 342 32 70 32 36 34 20 38 69 64 64 67 77 92 103
353 353 348 343 338 331 326 320 318 312 309 305 305 307 304 298 295 288 286 286 296 313 321 323 328 328 330 337 353 333 54 77 12 29 310 245 261 266 269 281 296 324 44 315 253 290 275 278 293 340 265 185 276 192 102 249 89 231 126 227 242 168 81 38 42 78 81 121 93 75 55 60 17 42 16 86 61 41 39 16 11 52 89 84 65 49 40 43
348 342 339 333 328 325 320 317 313 315 309 309 305 304 303 302 296 297 294 298 303 313 315 321 329 336 332 333 338 322 81 65 52 270 284 317 330 328 308 297 306 322 353 202 236 278 278 296 294 310 330 231 281 86 136 235 98 258 98 185 232 187 91 346 27 24 49 79 95 94 76 67 43 45 46 95 59 39 36 23 38 44 52 62 58 55 55 53
339 337 332 328 323 318 315 315 311 308 306 304 306 303 299 295 296 299 302 301 304 305 317 328 339 340 332 335 323 23 78 47 296 285 296 321 335 327 323 311 315 329 317 268 314 270 264 265 313 350 96 269 338 94 237 207 177 119 193 196 228 88 75 356 28 36 74 67 77 62 60 104 81 46 48 62 77 49 37 36 43 47 42 44 54 55 55 53
343 339 339 337 330 326 324 318 314 313 310 306 303 300 299 298 296 287 283 291 295 303 318 342 348 333 322 328 350 57 84 235 288 314 292 312 333 328 320 309 310 9 8 340 318 297 335 328 57 15 326 115 247 189 254 180 145 208 311 54 40 70 109 327 31 43 68 64 64 70 78 79 75 74 57 65 67 67 54 51 50 51 52 58 60 55 53 50
343 344 341 338 331 328 322 318 314 315 313 309 303 298 291 290 292 299 302 293 282 298 319 353 352 327 319 335 319 77 88 145 307 288 321 326 329 324 320 323 331 337 351 339 339 20 358 350 181 234 209 242 293 255 276 147 89 101 200 82 52 92 92 102 75 74 73 78 76 91 85 78 90 73 57 68 63 61 54 51 52 52 54 49 54 50 55 55
346 344 340 332 325 322 316 310 310 312 309 305 300 295 292 288 283 279 288 299 305 320 349 20 357 307 356 60 54 40 52 303 276 277 320 337 329 322 324 341 22 347 2 345 304 329 353 33 22 335 79 156 272 354 335 61 18 99 25 30 131 77 111 93 88 84 85 85 96 74 72 73 76 95 71 62 59 57 54 52 51 51 51 50 52 50 52 53
341 339 336 329 325 320 316 309 305 301 297 293 292 293 295 293 288 285 273 269 282 308 0 9 334 2 155 102 92 67 348 272 267 294 313 335 328 328 5 3 354 17 318 309 322 283 67 348 17 59 297 6 334 44 346 81 351 46 66 43 77 96 92 85 75 84 85 87 79 70 73 99 113 84 61 65 66 67 59 53 49 52 53 50 50 51 50 53
338 337 335 327 313 310 306 302 307 307 303 302 299 295 293 290 292 293 285 281 279 299 59 4 327 327 89 89 52 65 275 249 281 277 309 336 336 340 20 356 10 352 11 332 4 49 65 318 94 278 204 320 34 16 12 74 185 155 86 90 105 122 89 66 91 85 81 85 80 81 63 45 14 94 82 60 68 68 63 57 51 57 58 55 55 53 50 54
332 335 331 321 315 311 312 319 326 323 324 325 324 320 309 301 284 273 271 275 292 313 35 42 327 350 28 67 86 71 243 33 258 304 316 333 350 346 329 348 344 10 6 346 51 81 93 34 303 314 44 235 31 349 69 231 174 96 114 61 70 76 88 106 99 113 101 73 94 85 70 66 54 73 94 85 70 71 72 60 57 58 60 61 61 59 57 57
334 333 322 320 326 323 321 322 332 331 332 330 333 331 328 326 310 263 250 268 283 291 37 83 80 64 75 71 67 86 240 229 299 302 333 347 334 300 210 214 315 343 36 2 353 15 46 341 42 55 181 221 309 51 110 264 113 132 85 75 78 79 72 92 128 147 114 162 131 111 66 43 41 78 91 91 85 76 73 69 63 64 65 64 65 67 63 58
337 337 331 335 338 333 325 328 333 330 337 334 334 335 339 350 351 162 224 264 256 291 58 117 175 112 81 51 270 248 274 298 326 323 320 358 333 332 165 221 263 237 322 29 326 322 342 55 56 59 241 87 182 67 221 68 321 72 51 125 86 50 42 344 60 122 123 182 205 56 40 17 52 73 94 99 92 85 77 71 71 71 70 69 69 70 69 65
343 348 341 345 342 336 330 331 339 333 337 331 334 342 347 341 155 163 187 226 47 47 71 163 93 101 78 146 251 264 295 25 341 352 317 344 22 317 359 330 292 8 2 26 315 355 357 12 52 77 109 64 350 282 46 3 39 105 33 73 131 74 55 0 34 129 78 4 49 82 115 113 71 83 79 81 92 91 91 92 88 83 78 78 78 77 76 71
346 345 340 345 344 344 333 327 338 340 346 350 349 349 353 349 326 246 205 354 257 171 216 61 39 65 50 359 269 300 30 44 348 331 345 24 11 356 351 337 349 16 300 35 1 326 27 19 43 32 21 300 9 43 358 52 37 25 61 326 354 99 221 33 10 15 117 47 63 88 82 99 89 91 88 92 87 91 96 100 97 92 92 91 88 83 79 73
340 337 341 343 341 344 338 327 343 350 353 352 347 342 348 341 316 283 262 222 186 141 196 77 346 118 108 45 327 318 8 20 336 324 339 47 37 54 287 292 284 322 4 322 4 2 6 77 74 81 7 2 33 36 46 43 350 4 93 17 59 77 169 76 8 15 86 90 15 111 133 126 78 84 90 93 94 93 99 98 104 101 100 98 93 89 84 82
335 337 336 336 337 344 345 332 343 341 333 329 333 305 295 298 304 268 272 337 358 302 49 36 345 82 70 250 11 8 324 299 346 346 332 340 133 255 356 349 39 310 357 349 18 35 357 58 336 26 35 76 311 79 78 30 352 343 28 103 141 133 161 104 82 33 42 85 54 68 104 96 114 97 96 96 103 104 102 105 105 106 104 100 94 86 87 85
330 328 328 332 333 344 353 334 329 334 316 318 318 311 331 328 336 50 351 36 319 93 40 84 90 60 360 18 20 319 299 303 341 309 312 315 123 358 40 348 343 23 44 14 359 46 2 50 22 135 16 13 22 25 75 96 268 303 350 16 341 9 68 93 86 188 69 63 93 88 89 111 104 109 101 100 103 109 118 121 117 114 114 107 100 97 90 89
331 326 322 334 329 344 343 336 318 322 310 310 283 263 259 291 334 47 37 350 44 356 25 334 26 87 224 301 290 299 316 286 279 11 341 354 325 254 212 164 96 42 76 66 331 47 5 71 32 37 17 357 11 32 107 213 180 240 223 195 251 62 15 118 79 38 105 81 81 84 115 128 126 119 127 125 126 118 120 119 123 124 125 123 121 118 113 103
332 328 326 323 329 335 329 333 308 311 323 354 2 8 20 20 7 356 344 33 70 111 152 234 29 172 25 332 344 297 272 3 25 348 354 348 349 8 46 106 2 46 69 79 12 36 348 68 57 46 340 345 357 358 302 283 202 347 58 70 63 99 37 103 100 149 108 86 57 98 108 114 121 128 139 138 122 115 124 125 128 139 139 147 145 143 142 134
332 330 333 331 332 329 338 335 318 307 185 73 66 63 135 154 89 57 310 52 75 71 76 39 81 80 47 263 307 1 18 323 35 3 359 297 201 70 352 28 18 60 40 99 89 230 62 57 10 314 339 22 359 338 10 45 43 78 105 83 37 42 9 309 156 198 300 108 116 102 99 95 99 80 81 103 107 138 142 149 153 153 162 163 161 158 157 155
333 329 329 330 336 341 337 340 329 13 110 90 72 97 115 142 212 189 119 61 14 25 63 53 32 34 334 298 223 46 157 2 8 359 349 22 354 64 334 70 57 61 327 26 38 30 47 45 327 325 321 51 23 14 38 88 69 40 68 84 68 3 289 11 81 89 69 83 148 156 109 113 108 102 57 83 116 145 164 166 169 160 172 171 170 171 162 153
317 323 342 336 339 339 342 338 335 20 73 45 53 72 92 252 328 254 109 120 82 306 71 36 31 30 348 311 343 31 43 39 333 351 348 4 6 63 16 57 55 66 44 35 110 111 46 344 333 325 52 64 33 30 45 55 63 58 33 43 67 315 61 295 358 48 7 122 158 173 113 120 132 130 136 166 126 162 97 110 174 177 174 180 182 176 168 166
331 345 339 335 334 339 344 334 324 41 39 101 86 111 234 353 357 24 81 87 140 326 64 164 105 34 21 8 2 39 57 12 5 353 341 28 31 279 72 78 75 65 70 75 79 82 120 292 313 15 55 58 55 40 39 42 68 49 98 133 133 3 308 157 260 83 68 39 112 117 87 145 199 185 203 205 180 147 177 120 110 116 147 157 125 118 153 162
340 341 340 334 334 347 332 344 43 66 136 54 62 235 306 302 59 14 96 46 31 20 217 5 96 52 308 262 300 136 147 85 46 353 327 47 348 33 354 158 86 44 105 90 69 56 20 345 319 49 35 34 44 41 41 69 41 327 113 122 135 200 184 261 285 134 41 41 236 143 17 288 188 202 189 191 182 190 213 171 202 187 172 156 154 162 163 160
345 347 344 340 341 341 306 50 294 160 73 74 201 234 215 317 263 2 106 86 31 284 5 357 50 352 25 348 351 26 70 48 20 1 360 353 173 101 19 19 106 166 135 69 93 108 49 329 47 54 52 32 46 70 49 66 25 78 317 157 22 275 181 132 64 89 138 155 233 169 124 272 149 221 198 192 186 202 207 191 206 191 190 189 189 186 182 178
345 348 350 341 347 337 58 209 223 79 41 41 306 342 261 279 37 70 61 1 32 360 25 279 44 343 40 338 335 51 44 297 315 358 22 0 28 23 94 346 15 28 116 128 44 347 15 359 22 30 41 42 35 28 335 48 70 351 263 351 329 319 307 293 115 133 220 200 66 165 187 235 291 237 188 189 183 209 210 215 203 200 200 200 197 194 192 184
342 347 353 346 339 50 158 144 49 77 164 216 305 301 328 327 83 37 77 69 335 347 22 319 46 293 50 315 23 86 184 256 30 352 32 3 45 16 71 35 90 18 326 80 97 252 86 336 32 29 35 39 33 257 287 60 71 241 291 330 297 266 241 197 121 147 214 93 260 273 274 46 263 311 115 160 195 229 228 216 211 207 203 200 198 187 183 182
338 349 354 348 358 52 65 88 96 105 279 321 335 337 352 13 95 94 123 108 254 40 174 38 255 12 339 360 35 21 337 11 89 297 341 20 13 162 46 15 73 67 31 95 138 234 316 127 33 118 71 359 264 284 268 124 12 286 297 328 353 94 85 113 89 61 351 122 266 290 331 118 287 185 190 242 248 243 228 215 210 205 204 201 200 199 194 192
338 345 354 354 37 21 2 41 53 165 336 352 324 350 34 60 39 34 28 340 24 323 17 276 59 286 16 28 341 3 36 353 23 341 33 78 359 24 44 71 68 63 60 25 79 188 186 288 256 73 11 285 277 281 240 228 5 294 345 42 13 38 43 23 89 106 51 35 254 270 314 119 299 223 199 173 219 208 218 212 218 216 216 211 203 199 196 196
346 340 354 355 72 203 342 43 299 302 312 324 352 44 70 40 101 99 73 232 48 288 7 15 345 12 21 47 3 331 35 351 357 29 8 10 16 36 19 8 23 55 61 35 42 359 5 346 34 297 350 321 82 358 10 24 30 32 22 11 27 348 11 27 351 36 81 282 254 227 305 126 243 291 233 223 263 209 179 198 198 207 209 210 208 207 201 196
351 345 346 31 322 38 93 174 241 319 314 328 49 64 80 45 10 76 168 316 99 304 69 293 319 10 353 349 65 340 6 338 15 32 47 38 48 48 4 88 340 50 13 16 127 24 22 37 306 339 300 46 347 55 334 357 8 27 24 31 82 301 30 348 10 8 135 204 254 2 17 358 222 220 241 210 223 242 214 188 195 200 209 211 215 210 202 201
346 343 330 31 353 67 91 229 200 275 291 35 71 53 60 94 71 294 321 336 185 91 292 127 278 344 325 60 354 331 13 71 329 30 75 40 94 41 83 65 281 175 128 326 115 33 278 271 9 324 9 22 84 77 336 6 344 12 26 53 64 39 35 339 279 280 318 306 281 354 276 231 254 297 202 205 217 215 192 219 201 199 204 209 213 211 206 208
347 341 63 353 76 119 183 200 226 28 69 51 77 39 50 63 217 359 255 329 259 333 10 32 326 359 42 87 320 61 32 320 71 345 32 33 50 21 337 6 21 10 66 23 78 252 57 357 321 30 14 326 52 115 168 199 303 275 236 97 157 140 152 230 249 257 236 243 284 329 68 236 356 245 319 215 209 202 175 179 190 195 208 209 211 207 209 212
307 307 136 3 47 23 131 171 100 97 80 69 57 77 93 180 187 162 296 306 314 349 291 332 16 56 331 33 321 346 145 318 119 82 24 45 9 26 349 338 349 79 19 75 298 80 173 191 260 231 201 57 33 299 125 116 83 270 136 96 57 214 138 149 204 182 268 315 326 329 195 214 205 319 295 51 102 205 215 212 218 233 227 200 201 210 217 214
330 320 148 353 65 275 170 200 65 66 83 74 77 46 82 167 148 92 103 191 284 24 307 352 67 58 342 345 326 24 310 66 318 77 7 75 154 42 295 333 6 6 38 111 228 76 30 326 233 305 16 89 181 1 1 125 59 283 51 20 216 185 102 353 336 270 61 50 255 204 325 304 307 302 276 311 223 234 251 237 221 232 235 224 226 229 226 223
41 41 30 328 26 211 188 165 99 79 80 84 89 63 183 323 191 193 328 72 232 135 12 78 324 68 351 325 319 344 308 46 336 92 2 137 6 13 342 303 324 19 35 116 354 166 137 251 281 102 318 266 229 160 321 16 142 63 62 250 297 83 127 125 238 324 47 245 266 296 256 293 43 297 351 295 267 251 239 229 226 230 232 231 235 233 231 225
12 67 121 33 325 174 170 143 89 73 78 77 61 114 16 92 304 137 262 13 23 11 79 87 276 110 326 78 332 343 323 86 316 47 115 16 168 67 76 318 302 75 325 326 130 270 104 6 312 214 186 249 356 43 358 328 60 136 174 192 88 296 351 317 82 343 339 309 276 294 268 265 200 258 99 250 225 244 235 229 232 241 237 237 241 245 246 238
41 77 16 325 307 160 164 137 79 60 73 69 84 82 345 116 276 115 217 162 194 133 74 305 142 329 118 46 246 312 348 59 309 70 80 340 82 77 101 164 292 335 347 15 68 299 30 127 299 329 92 161 41 77 280 280 328 16 51 22 348 100 168 89 201 183 128 267 10 287 147 268 216 224 198 235 218 229 228 221 226 229 230 232 238 240 227 223
55 40 357 303 349 81 145 117 59 45 64 83 166 83 178 97 256 263 204 158 19 80 297 77 345 89 19 177 132 40 319 73 62 322 100 300 132 36 66 351 257 313 336 324 130 41 295 126 248 275 309 157 303 359 201 157 151 347 32 340 1 340 213 128 285 170 185 206 198 276 314 275 259 204 180 225 219 210 197 207 216 224 226 221 220 216 221 225
57 96 268 327 342 355 66 43 42 32 77 88 86 127 35 163 208 299 222 192 287 243 136 119 89 104 216 56 332 285 359 29 29 54 142 325 98 303 217 221 173 327 346 25 48 344 50 4 192 297 0 266 232 240 205 157 166 157 156 199 166 109 27 34 272 341 72 110 241 274 271 272 272 155 200 209 203 191 204 199 222 235 234 227 231 233 226 239
76 45 293 319 334 56 74 64 6 46 85 65 73 121 93 166 65 305 5 327 96 77 12 99 25 109 37 85 195 339 95 33 326 78 313 151 329 140 263 177 246 192 78 94 356 254 130 186 97 290 218 241 236 279 318 166 118 144 137 212 167 139 112 108 168 278 357 253 178 177 326 274 245 188 187 193 186 201 211 200 222 231 229 229 235 237 242 234
46 129 249 335 331 79 74 60 351 36 69 208 282 25 14 39 122 238 70 343 49 51 27 59 214 81 231 119 336 61 99 108 154 226 200 130 227 218 223 241 298 61 96 312 23 297 67 84 31 289 296 298 319 324 347 37 55 22 324 139 111 176 177 177 179 182 165 290 307 298 204 260 298 223 194 193 206 211 228 204 216 232 236 235 236 241 242 250
113 66 343 335 24 86 83 113 89 73 73 17 66 107 4 130 69 4 34 329 101 357 97 7 347 125 177 99 98 85 240 75 293 105 6 148 31 209 164 311 103 56 110 229 138 263 50 290 120 335 357 336 339 345 345 329 58 169 206 235 152 101 77 137 106 62 216 225 192 131 253 273 276 244 286 96 237 241 243 245 211 234 242 237 236 238 235 235
104 4 41 335 3 49 96 172 127 131 131 136 110 61 15 16 141 172 166 328 342 143 69 339 194 315 15 101 128 109 337 141 229 286 148 135 212 357 252 196 113 121 194 209 217 231 109 213 96 106 31 332 308 307 285 291 251 239 188 159 164 138 141 115 176 83 173 268 154 194 252 256 252 291 264 262 257 264 257 249 247 222 230 231 229 225 228 231
40 90 316 9 11 35 61 70 96 122 128 121 60 99 95 68 332 307 107 331 172 323 117 152 357 75 350 41 351 12 324 353 107 239 92 262 295 296 208 210 158 180 216 172 186 89 163 271 147 157 152 192 213 228 236 135 331 253 250 172 210 178 172 122 110 128 214 220 190 232 234 284 292 277 261 257 241 246 259 252 238 234 232 228 218 221 225 237
110 82 72 55 345 43 56 22 75 70 156 158 88 176 30 112 211 340 158 55 10 121 8 79 219 79 310 59 287 358 232 21 17 82 226 167 256 231 284 180 180 201 165 155 200 93 68 327 264 182 210 220 220 247 253 243 251 261 248 247 216 184 173 159 166 224 171 52 277 221 237 258 267 285 285 275 252 245 244 237 236 233 224 222 226 234 251 251
74 241 100 195 121 187 42 355 73 74 35 75 143 92 163 127 35 107 340 76 358 11 112 335 40 75 163 168 152 65 285 271 148 235 356 236 6 333 4 299 179 205 148 40 76 116 141 206 266 102 266 254 255 259 272 267 234 242 241 234 210 203 166 189 224 229 147 207 247 268 230 242 274 280 282 283 283 271 260 236 216 214 219 230 242 248 260 270
114 145 122 326 79 236 163 178 97 102 73 100 82 76 74 99 108 224 165 320 25 322 103 286 289 357 155 94 105 226 262 52 309 293 180 207 191 110 307 326 280 144 124 71 356 149 89 258 232 182 270 274 266 258 256 223 255 249 246 237 229 184 205 207 229 230 199 232 245 262 277 270 269 274 280 285 278 260 250 218 159 225 250 244 247 259 264 278
179 115 78 23 81 111 205 51 97 69 77 65 95 301 140 150 170 287 357 90 24 297 8 101 282 294 193 69 118 152 234 199 198 236 243 132 306 151 223 188 191 17 91 155 138 296 110 276 105 215 339 292 284 289 242 202 209 264 269 252 231 221 219 221 228 248 228 259 260 263 270 276 272 267 268 263 265 284 337 238 218 232 240 253 266 283 291 291
162 141 149 121 76 323 20 46 69 105 65 348 78 252 75 101 172 171 159 228 160 219 6 182 243 314 273 181 277 212 223 184 179 209 205 159 194 220 142 277 127 179 27 89 34 314 49 263 39 71 350 295 294 250 285 337 309 277 276 276 261 233 239 226 206 226 190 235 249 281 284 271 279 285 250 263 289 292 276 284 283 266 264 280 289 290 295 305
74 345 85 100 88 282 102 335 40 61 21 242 144 224 148 233 207 127 50 359 91 129 175 157 252 115 325 49 249 223 221 190 213 199 184 210 185 184 174 183 156 159 195 151 234 178 161 113 2 19 319 260 267 340 327 325 337 310 271 240 230 226 211 246 255 236 220 211 257 263 258 265 282 300 302 287 259 258 270 256 275 288 265 246 270 291 304 289